• Join FlightAware (Why Join?)
  • Login
  • US Flag GB Flag 
17:04 EDT


 

Airport Tracker/Info


-or-


 

Live Flight TrackerFlight Track Log ✈ UPS1216 ✈ 09-May-2013 ✈ KRFD - KBWI

Flight Track Log - Related Links

Times and Time Zones

All times are in EDT time to prevent confusion due to time zone crossing. See the UPS1216 flight status page for this flight to view local times or setup timezone preferences in your user account.

Time Position Orientation Groundspeed Altitude Reporting Facility
EDT Latitude Longitude Course Direction KTS MPH feet Rate Location/Type
04:04 42.0071 -88.0778 104° East  Level Estimated
04:05 41.9794 -87.9327 104° East  Level Estimated
04:06 41.9516 -87.7877 104° East  Level Estimated
04:07 41.9236 -87.6428 105° East  Level Estimated
04:08 41.8954 -87.4980 105° East  Level Estimated
04:09 41.8671 -87.3534 105° East  Level Estimated
04:10 41.8385 -87.2089 105° East  Level Estimated
04:11 41.8098 -87.0646 105° East  Level Estimated
04:11 42.0394 -87.2797 105° East 528 608 30,500  Level Indianapolis Center
04:12 41.7809 -86.9203 105° East  Level Estimated
04:12 41.9925 -87.1139 111° Southeast 478 550 32,200  Level Indianapolis Center
04:13 41.7519 -86.7768 105° East  Level Estimated
04:13 41.9456 -86.9425 110° East 483 556 33,900  Level Indianapolis Center
04:14 41.7228 -86.6334 105° East  Level Estimated
04:14 41.8983 -86.7761 111° Southeast 483 556 35,000  Level Indianapolis Center
04:15 41.6935 -86.4902 105° East  Level Estimated
04:16 41.8489 -86.6290 114° Southeast  Level FlightAware Approximate
04:16 41.6640 -86.3471 105° East  Level Estimated
04:17 41.6343 -86.2041 105° East  Level Estimated
04:22 41.5075 -85.4225 112° Southeast 489 563 35,000  Level Cleveland Center
04:23 41.5629 -85.6629 111° Southeast  Level FlightAware Approximate
04:23 41.4561 -85.2522 112° Southeast 489 563 35,000  Level Cleveland Center
04:24 41.5228 -85.5248 111° Southeast  Level FlightAware Approximate
04:24 41.4064 -85.0881 112° Southeast 484 557 35,000  Level Cleveland Center
04:25 41.4824 -85.3868 111° Southeast  Level FlightAware Approximate
04:25 41.3511 -84.9017 112° Southeast 484 557 35,000  Level Cleveland Center
04:26 41.4419 -85.2491 111° Southeast  Level FlightAware Approximate
04:26 41.3006 -84.7406 113° Southeast 484 557 35,000  Level Cleveland Center
04:27 41.4012 -85.1115 111° Southeast  Level FlightAware Approximate
04:27 41.2503 -84.5744 112° Southeast 484 557 35,000  Level Cleveland Center
04:28 41.3604 -84.9741 112° Southeast  Level FlightAware Approximate
04:28 41.2017 -84.4114 112° Southeast 484 557 35,000  Level Cleveland Center
04:29 41.1508 -84.2428 112° Southeast 484 557 35,000  Level Cleveland Center
04:30 41.1017 -84.0828 112° Southeast 484 557 35,000  Level Cleveland Center
04:31 41.0503 -83.9178 112° Southeast 484 557 35,000  Level Cleveland Center
04:32 41.0022 -83.7722 114° Southeast 478 550 35,000  Level Cleveland Center
04:35 40.8931 -83.4219 112° Southeast 473 544 35,000  Level Indianapolis Center
04:36 40.8414 -83.2631 113° Southeast 470 541 35,000  Level Indianapolis Center
04:37 40.7892 -83.1047 113° Southeast 467 537 35,000  Level Indianapolis Center
04:38 40.7397 -82.9453 112° Southeast 468 539 35,000  Level Indianapolis Center
04:39 40.6875 -82.7881 114° Southeast 466 536 35,000  Level Indianapolis Center
04:40 40.6356 -82.6297 113° Southeast 468 539 35,000  Level Indianapolis Center
04:41 40.5836 -82.4725 113° Southeast 467 537 35,000  Level Indianapolis Center
04:42 40.5303 -82.3133 114° Southeast 473 544 35,000  Level Indianapolis Center
04:43 40.4761 -82.1528 114° Southeast 477 549 35,000 -300 Level Indianapolis Center
04:44 40.4231 -81.9947 114° Southeast 473 544 34,400 -1,020 Descending Indianapolis Center
04:45 40.3694 -81.8364 114° Southeast 474 545 33,000 -720 Descending Indianapolis Center
04:46 40.3150 -81.6758 114° Southeast 478 550 33,000  Level Indianapolis Center
04:47 40.2589 -81.5117 114° Southeast 488 562 33,000  Level Indianapolis Center
04:48 40.2028 -81.3469 114° Southeast 491 565 33,000  Level Indianapolis Center
04:49 40.1467 -81.1844 114° Southeast 489 563 33,000  Level Indianapolis Center
04:50 40.0897 -81.0233 115° Southeast 486 559 33,000  Level Indianapolis Center
04:51 40.0336 -80.8600 114° Southeast 489 563 33,000  Level Indianapolis Center
04:52 39.9933 -80.6928 107° East 480 552 33,000  Level Indianapolis Center
04:54 39.9264 -80.3400 104° East 476 548 33,000  Level Washington Center
04:55 39.8914 -80.1700 105° East 476 548 33,000  Level Washington Center
04:56 39.8558 -80.0028 105° East 482 555 33,000  Level Washington Center
04:57 39.8222 -79.8386 105° East 482 555 33,000  Level Washington Center
04:58 39.7900 -79.6853 105° East 482 555 33,000 -60 Level Washington Center
04:59 39.7558 -79.5214 105° East 482 555 32,900 -1,500 Descending Washington Center
05:00 39.7217 -79.3550 105° East 482 555 30,000 -3,360 Descending Washington Center
05:01 39.6850 -79.1886 106° East 482 555 26,200 -3,180 Descending Washington Center
05:02 39.6503 -79.0225 105° East 477 549 23,800 -2,700 Descending Washington Center
05:03 39.6094 -78.8453 107° East 472 543 20,900 -2,400 Descending Washington Center
05:04 39.5778 -78.6958 105° East 452 520 19,100 -1,860 Descending Washington Center
05:05 39.5439 -78.5519 107° East 430 495 17,200 -1,620 Descending Washington Center
05:06 39.5119 -78.4078 106° East 418 481 15,900 -1,140 Descending Washington Center
05:07 39.4817 -78.2722 106° East 413 475 15,000 -480 Descending Washington Center
05:08 39.4569 -78.1639 106° East 400 460 15,000  Level Washington Center
05:09 39.4225 -78.0147 107° East 395 455 15,000  Level Washington Center
05:10 39.3942 -77.8769 105° East 395 455 15,000 -180 Level Washington Center
05:11 39.3672 -77.7525 106° East 379 436 14,700 -1,080 Descending Washington Center
05:12 39.3461 -77.6447 104° East 341 392 12,900 -2,100 Descending Washington Center
05:13 39.3167 -77.5333 109° East 320 368 10,700 -2,160 Descending Potomac TRACON
05:14 39.3000 -77.4333 102° East 311 358 8,700 -2,040 Descending Potomac TRACON
05:15 39.2833 -77.3333 102° East 300 345 6,900 -1,680 Descending Potomac TRACON
05:16 39.2500 -77.2333 113° Southeast 288 331 5,600 -1,260 Descending Potomac TRACON
05:17 39.2333 -77.1333 102° East 280 322 4,400 -1,200 Descending Potomac TRACON
05:18 39.2167 -77.0333 102° East 268 308 3,300 -900 Descending Potomac TRACON
05:19 39.2000 -76.9500 104° East 228 262 2,700 -420 Descending Potomac TRACON
05:20 39.1833 -76.8833 108° East 194 223 2,500 -300 Descending Potomac TRACON
05:21 39.1833 -76.8167 90° East 172 198 2,200 -540 Descending Potomac TRACON
05:22 39.1833 -76.7667 90° East 134 154 1,500 -720 Descending Potomac TRACON
05:23 39.1833 -76.7167 90° East 129 148 800 -720 Descending Potomac TRACON